weather.gov     
National Weather Service

Regional Weather Roundup
NWS Homepage
This page is being discontinued on March 12, 2014.
The same data is available at this site. Please update your bookmarks.
Thank you, and we apologize for the inconvenience.
Please send an email to SR-SRH.Webmaster@noaa.gov with any concerns.


Current Version
Previous Version:    01  02  03  04  05  06  07  08  09  10  11  12  13  14  15  16  17  18  19  20  21  22  23  24  25  26  27  28  
[Printable]
975
ASUS41 KALY 231210
RWRALY

NEW YORK STATE HOURLY WEATHER ROUNDUP
NATIONAL WEATHER SERVICE ALBANY NY
800 AM EDT TUE SEP 23 2014

NOTE: "FAIR" INDICATES FEW OR NO CLOUDS BELOW 12,000 FEET WITH NO
SIGNIFICANT WEATHER AND/OR NO OBSTRUCTIONS TO VISIBILITY.

NYZ032-033-038>043-046>054-057>066-NYZ062>081-231300-
EAST


CITY           SKY/WX    TMP DP  RH WIND       PRES   REMARKS
ALBANY         MOSUNNY   49  43  80 SW6       30.28R
GLENS FALLS    SUNNY     41  37  86 CALM      30.26R
POUGHKEEPSIE   SUNNY     44  40  85 CALM      30.29R
NEWBURGH       SUNNY     45  41  87 SW7       30.30R
MONTGOMERY     MOSUNNY   43  40  89 S5        30.29R
WHITE PLAINS   SUNNY     50  43  77 NW5       30.28R
ISLIP          MOSUNNY   56  44  64 N3        30.26R
NEW YORK CITY  MOSUNNY   55  41  59 N7        30.29R
CENTRAL PARK   SUNNY     53  40  61 CALM      30.32R
$$

NYZ005>009-017-018-044>046-055-056-231300-
CENTRAL


CITY           SKY/WX    TMP DP  RH WIND       PRES   REMARKS
FULTON         PTSUNNY   46  42  86 S3        30.27R
SYRACUSE       PTSUNNY   50  43  77 SW3       30.28R
ROME           CLOUDY    42  42 100 CALM      30.29S
ELMIRA         FOG       41  40  96 CALM      30.31R VSB 1/8
BINGHAMTON     SUNNY     42  40  92 SW3       30.29R
MONTICELLO     CLOUDY    39  37  93 CALM      30.30R
$$

NYZ026>034-041>043-231300-
NORTH


CITY           SKY/WX    TMP DP  RH WIND       PRES   REMARKS
WATERTOWN      CLOUDY    53  46  77 S6        30.24R
FORT DRUM      NOT AVBL
MASSENA        CLOUDY    49  45  86 SW10      30.21R
SARANAC LAKE   CLOUDY    42  40  92 SW9       30.20R
PLATTSBURGH    CLOUDY    49  41  74 S3        30.20R
$$

NYZ001>004-010>016-019>021-231300-
WEST


CITY           SKY/WX    TMP DP  RH WIND       PRES   REMARKS
NIAGARA FALLS  MOCLDY    50  44  80 W7        30.28R
BUFFALO        MOCLDY    50  44  80 SW8       30.29R
DUNKIRK        MOCLDY    51  46  83 SW7       30.31R
JAMESTOWN      CLEAR     39  37  93 S5        30.32R
WELLSVILLE     SUNNY     44  41  89 CALM      30.32R
ROCHESTER      PTSUNNY   46  42  86 SW9       30.28R
PENN YAN       SUNNY     47  44  90 SW9       30.29R
$$

             KEY
       WCI = WIND CHILL INDEX
       VSB = VISIBILITY
       HX  = HEAT INDEX
$$




U.S. Dept. of Commerce
NOAA National Weather Service
1325 East West Highway
Silver Spring, MD 20910
E-mail: w-nws.webmaster@noaa.gov
Page last modified: May 16, 2007
NATIONAL WEATHER SERVICE: for Safety, for Work, for Fun - FOR LIFE